owner,sensor,date,latitude,longitude,vertical_datum,mass_concentration_of_oxygen_in_sea_water,qcFlag 
SCCF RECON,ioos:station:SCCF:56:1,2017-04-01T00:00:00Z,26.4645,-82.1044,1.56,5.58,1111122 
SCCF RECON,ioos:station:SCCF:56:1,2017-04-01T01:00:00Z,26.4645,-82.1044,1.401,4.85,1111122 
SCCF RECON,ioos:station:SCCF:56:1,2017-04-01T02:00:00Z,26.4645,-82.1044,1.284,4.37,1111122 
SCCF RECON,ioos:station:SCCF:56:1,2017-04-01T03:00:00Z,26.4645,-82.1044,1.192,4.07,1111122 
SCCF RECON,ioos:station:SCCF:56:1,2017-04-01T04:00:00Z,26.4645,-82.1044,1.155,3.72,1111122 
SCCF RECON,ioos:station:SCCF:56:1,2017-04-01T05:00:00Z,26.4645,-82.1044,1.259,3.7,1111122 
SCCF RECON,ioos:station:SCCF:56:1,2017-04-01T06:00:00Z,26.4645,-82.1044,1.417,2.39,1111122 
SCCF RECON,ioos:station:SCCF:56:1,2017-04-01T07:00:00Z,26.4645,-82.1044,1.54,4.9,1111122 
SCCF RECON,ioos:station:SCCF:56:1,2017-04-01T08:00:00Z,26.4645,-82.1044,1.64,5.29,1111122 
SCCF RECON,ioos:station:SCCF:56:1,2017-04-01T09:00:00Z,26.4645,-82.1044,1.68,4.88,1111122 
SCCF RECON,ioos:station:SCCF:56:1,2017-04-01T10:00:00Z,26.4645,-82.1044,1.69,4.58,1111122 
SCCF RECON,ioos:station:SCCF:56:1,2017-04-01T11:00:00Z,26.4645,-82.1044,1.635,4.92,1111122 
SCCF RECON,ioos:station:SCCF:56:1,2017-04-01T12:00:00Z,26.4645,-82.1044,1.55,4.64,1111122 
SCCF RECON,ioos:station:SCCF:56:1,2017-04-01T13:00:00Z,26.4645,-82.1044,1.49,4.29,1111122 
SCCF RECON,ioos:station:SCCF:56:1,2017-04-01T14:00:00Z,26.4645,-82.1044,1.448,3.97,1111122 
SCCF RECON,ioos:station:SCCF:56:1,2017-04-01T15:00:00Z,26.4645,-82.1044,1.418,3.54,1111122 
SCCF RECON,ioos:station:SCCF:56:1,2017-04-01T16:00:00Z,26.4645,-82.1044,1.44,3.7,1111122 
SCCF RECON,ioos:station:SCCF:56:1,2017-04-01T17:00:00Z,26.4645,-82.1044,1.55,7.04,1111122 
SCCF RECON,ioos:station:SCCF:56:1,2017-04-01T18:00:00Z,26.4645,-82.1044,1.67,8.42,1111122 
SCCF RECON,ioos:station:SCCF:56:1,2017-04-01T19:00:00Z,26.4645,-82.1044,1.762,8.09,1111122 
SCCF RECON,ioos:station:SCCF:56:1,2017-04-01T20:00:00Z,26.4645,-82.1044,1.828,8.05,1111122 
SCCF RECON,ioos:station:SCCF:56:1,2017-04-01T21:00:00Z,26.4645,-82.1044,1.82,8.4,1111122 
SCCF RECON,ioos:station:SCCF:56:1,2017-04-01T22:00:00Z,26.4645,-82.1044,1.74,8.02,1111122 
SCCF RECON,ioos:station:SCCF:56:1,2017-04-01T23:00:00Z,26.4645,-82.1044,1.64,7.33,1111122 
SCCF RECON,ioos:station:SCCF:56:1,2017-04-02T00:00:00Z,26.4645,-82.1044,1.521,6.71,1111122 
SCCF RECON,ioos:station:SCCF:56:1,2017-04-02T01:00:00Z,26.4645,-82.1044,1.41,6.04,1111122 
SCCF RECON,ioos:station:SCCF:56:1,2017-04-02T02:00:00Z,26.4645,-82.1044,1.294,5.53,1111122 
SCCF RECON,ioos:station:SCCF:56:1,2017-04-02T03:00:00Z,26.4645,-82.1044,1.19,5.15,1111122 
SCCF RECON,ioos:station:SCCF:56:1,2017-04-02T04:00:00Z,26.4645,-82.1044,1.1,4.71,1111122 
SCCF RECON,ioos:station:SCCF:56:1,2017-04-02T05:00:00Z,26.4645,-82.1044,1.06,4.28,1111122 
SCCF RECON,ioos:station:SCCF:56:1,2017-04-02T06:00:00Z,26.4645,-82.1044,1.15,4.88,1111122 
SCCF RECON,ioos:station:SCCF:56:1,2017-04-02T07:00:00Z,26.4645,-82.1044,1.3,3.24,1111122 
SCCF RECON,ioos:station:SCCF:56:1,2017-04-02T08:00:00Z,26.4645,-82.1044,1.42,3.6,1111122 
SCCF RECON,ioos:station:SCCF:56:1,2017-04-02T09:00:00Z,26.4645,-82.1044,1.51,3.72,1111122 
SCCF RECON,ioos:station:SCCF:56:1,2017-04-02T10:00:00Z,26.4645,-82.1044,1.58,4.74,1111122 
SCCF RECON,ioos:station:SCCF:56:1,2017-04-02T11:00:00Z,26.4645,-82.1044,1.61,4.85,1111122 
SCCF RECON,ioos:station:SCCF:56:1,2017-04-02T12:00:00Z,26.4645,-82.1044,1.58,5.21,1111122 
SCCF RECON,ioos:station:SCCF:56:1,2017-04-02T13:00:00Z,26.4645,-82.1044,1.529,5.56,1111122 
SCCF RECON,ioos:station:SCCF:56:1,2017-04-02T14:00:00Z,26.4645,-82.1044,1.51,5.54,1111122 
SCCF RECON,ioos:station:SCCF:56:1,2017-04-02T15:00:00Z,26.4645,-82.1044,1.51,5.31,1111122 
SCCF RECON,ioos:station:SCCF:56:1,2017-04-02T16:00:00Z,26.4645,-82.1044,1.5,5.52,1111122 
SCCF RECON,ioos:station:SCCF:56:1,2017-04-02T17:00:00Z,26.4645,-82.1044,1.52,6.97,1111122 
SCCF RECON,ioos:station:SCCF:56:1,2017-04-02T18:00:00Z,26.4645,-82.1044,1.58,10.04,1111122 
SCCF RECON,ioos:station:SCCF:56:1,2017-04-02T19:00:00Z,26.4645,-82.1044,1.68,10.56,1111122 
SCCF RECON,ioos:station:SCCF:56:1,2017-04-02T20:00:00Z,26.4645,-82.1044,1.75,9.09,1111122 
SCCF RECON,ioos:station:SCCF:56:1,2017-04-02T21:00:00Z,26.4645,-82.1044,1.778,8.46,1111122 
SCCF RECON,ioos:station:SCCF:56:1,2017-04-02T22:00:00Z,26.4645,-82.1044,1.764,8.35,1111122 
SCCF RECON,ioos:station:SCCF:56:1,2017-04-02T23:00:00Z,26.4645,-82.1044,1.75,8.6,1111122 
SCCF RECON,ioos:station:SCCF:56:1,2017-04-03T00:00:00Z,26.4645,-82.1044,1.7,8.1,1111122 
SCCF RECON,ioos:station:SCCF:56:1,2017-04-03T01:00:00Z,26.4645,-82.1044,1.581,7.83,1111122 
SCCF RECON,ioos:station:SCCF:56:1,2017-04-03T02:00:00Z,26.4645,-82.1044,1.46,6.76,1111122 
SCCF RECON,ioos:station:SCCF:56:1,2017-04-03T03:00:00Z,26.4645,-82.1044,1.35,5.78,1111122 
SCCF RECON,ioos:station:SCCF:56:1,2017-04-03T04:00:00Z,26.4645,-82.1044,1.25,5.2,1111122 
SCCF RECON,ioos:station:SCCF:56:1,2017-04-03T05:00:00Z,26.4645,-82.1044,1.15,4.71,1111122 
SCCF RECON,ioos:station:SCCF:56:1,2017-04-03T06:00:00Z,26.4645,-82.1044,1.11,4.11,1111122 
SCCF RECON,ioos:station:SCCF:56:1,2017-04-03T07:00:00Z,26.4645,-82.1044,1.179,4.48,1111122 
SCCF RECON,ioos:station:SCCF:56:1,2017-04-03T08:00:00Z,26.4645,-82.1044,1.31,3.87,1111122 
SCCF RECON,ioos:station:SCCF:56:1,2017-04-03T09:00:00Z,26.4645,-82.1044,1.43,3.03,1111122 
SCCF RECON,ioos:station:SCCF:56:1,2017-04-03T10:00:00Z,26.4645,-82.1044,1.53,3.75,1111122 
SCCF RECON,ioos:station:SCCF:56:1,2017-04-03T11:00:00Z,26.4645,-82.1044,1.6,4.34,1111122 
SCCF RECON,ioos:station:SCCF:56:1,2017-04-03T12:00:00Z,26.4645,-82.1044,1.65,4.94,1111122 
SCCF RECON,ioos:station:SCCF:56:1,2017-04-03T13:00:00Z,26.4645,-82.1044,1.661,5.73,1111122 
SCCF RECON,ioos:station:SCCF:56:1,2017-04-03T14:00:00Z,26.4645,-82.1044,1.65,5.45,1111122 
SCCF RECON,ioos:station:SCCF:56:1,2017-04-03T15:00:00Z,26.4645,-82.1044,1.618,5.62,1111122 
SCCF RECON,ioos:station:SCCF:56:1,2017-04-03T16:00:00Z,26.4645,-82.1044,1.579,5.79,1111122 
SCCF RECON,ioos:station:SCCF:56:1,2017-04-03T17:00:00Z,26.4645,-82.1044,1.55,5.83,1111122 
SCCF RECON,ioos:station:SCCF:56:1,2017-04-03T18:00:00Z,26.4645,-82.1044,1.551,5.79,1111122 
SCCF RECON,ioos:station:SCCF:56:1,2017-04-03T19:00:00Z,26.4645,-82.1044,1.59,8.67,1111122 
SCCF RECON,ioos:station:SCCF:56:1,2017-04-03T20:00:00Z,26.4645,-82.1044,1.656,8.54,1111122 
SCCF RECON,ioos:station:SCCF:56:1,2017-04-03T21:00:00Z,26.4645,-82.1044,1.74,9.11,1111122 
SCCF RECON,ioos:station:SCCF:56:1,2017-04-03T22:00:00Z,26.4645,-82.1044,1.789,8.32,1111122 
SCCF RECON,ioos:station:SCCF:56:1,2017-04-03T23:00:00Z,26.4645,-82.1044,1.77,7.94,1111122 
SCCF RECON,ioos:station:SCCF:56:1,2017-04-04T00:00:00Z,26.4645,-82.1044,1.74,7.5,1111122 
SCCF RECON,ioos:station:SCCF:56:1,2017-04-04T01:00:00Z,26.4645,-82.1044,1.7,7.48,1111122 
SCCF RECON,ioos:station:SCCF:56:1,2017-04-04T02:00:00Z,26.4645,-82.1044,1.62,7.17,1111122 
SCCF RECON,ioos:station:SCCF:56:1,2017-04-04T03:00:00Z,26.4645,-82.1044,1.53,6.72,1111122 
SCCF RECON,ioos:station:SCCF:56:1,2017-04-04T04:00:00Z,26.4645,-82.1044,1.43,5.69,1111122 
SCCF RECON,ioos:station:SCCF:56:1,2017-04-04T05:00:00Z,26.4645,-82.1044,1.32,4.98,1111122 
SCCF RECON,ioos:station:SCCF:56:1,2017-04-04T06:00:00Z,26.4645,-82.1044,1.22,4.35,1111122 
SCCF RECON,ioos:station:SCCF:56:1,2017-04-04T07:00:00Z,26.4645,-82.1044,1.17,3.85,1111122 
SCCF RECON,ioos:station:SCCF:56:1,2017-04-04T08:00:00Z,26.4645,-82.1044,1.21,3.87,1111122 
SCCF RECON,ioos:station:SCCF:56:1,2017-04-04T09:00:00Z,26.4645,-82.1044,1.31,3.64,1111122 
SCCF RECON,ioos:station:SCCF:56:1,2017-04-04T10:00:00Z,26.4645,-82.1044,1.43,3.0,1111122 
SCCF RECON,ioos:station:SCCF:56:1,2017-04-04T11:00:00Z,26.4645,-82.1044,1.51,4.48,1111122 
SCCF RECON,ioos:station:SCCF:56:1,2017-04-04T12:00:00Z,26.4645,-82.1044,1.573,5.14,1111122 
SCCF RECON,ioos:station:SCCF:56:1,2017-04-04T13:00:00Z,26.4645,-82.1044,1.63,5.58,1111122 
SCCF RECON,ioos:station:SCCF:56:1,2017-04-04T14:00:00Z,26.4645,-82.1044,1.672,6.25,1111122 
SCCF RECON,ioos:station:SCCF:56:1,2017-04-04T15:00:00Z,26.4645,-82.1044,1.7,6.66,1111122 
SCCF RECON,ioos:station:SCCF:56:1,2017-04-04T16:00:00Z,26.4645,-82.1044,1.702,6.52,1111122 
SCCF RECON,ioos:station:SCCF:56:1,2017-04-04T17:00:00Z,26.4645,-82.1044,1.66,6.62,1111122 
SCCF RECON,ioos:station:SCCF:56:1,2017-04-04T18:00:00Z,26.4645,-82.1044,1.59,6.24,1111122 
SCCF RECON,ioos:station:SCCF:56:1,2017-04-04T19:00:00Z,26.4645,-82.1044,1.57,6.65,1111122 
SCCF RECON,ioos:station:SCCF:56:1,2017-04-04T20:00:00Z,26.4645,-82.1044,1.54,6.75,1111122 
SCCF RECON,ioos:station:SCCF:56:1,2017-04-04T21:00:00Z,26.4645,-82.1044,1.56,7.19,1111122 
SCCF RECON,ioos:station:SCCF:56:1,2017-04-04T22:00:00Z,26.4645,-82.1044,1.658,8.7,1111122 
SCCF RECON,ioos:station:SCCF:56:1,2017-04-04T23:00:00Z,26.4645,-82.1044,1.74,8.74,1111122 
SCCF RECON,ioos:station:SCCF:56:1,2017-04-05T00:00:00Z,26.4645,-82.1044,1.8,7.61,1111122 
SCCF RECON,ioos:station:SCCF:56:1,2017-04-05T01:00:00Z,26.4645,-82.1044,1.79,6.96,1111122 
SCCF RECON,ioos:station:SCCF:56:1,2017-04-05T02:00:00Z,26.4645,-82.1044,1.73,7.12,1111122 
SCCF RECON,ioos:station:SCCF:56:1,2017-04-05T03:00:00Z,26.4645,-82.1044,1.64,6.89,1111122 
SCCF RECON,ioos:station:SCCF:56:1,2017-04-05T04:00:00Z,26.4645,-82.1044,1.519,6.12,1111122 
SCCF RECON,ioos:station:SCCF:56:1,2017-04-05T05:00:00Z,26.4645,-82.1044,1.41,5.18,1111122 
SCCF RECON,ioos:station:SCCF:56:1,2017-04-05T06:00:00Z,26.4645,-82.1044,1.31,4.48,1111122 
SCCF RECON,ioos:station:SCCF:56:1,2017-04-05T07:00:00Z,26.4645,-82.1044,1.22,3.96,1111122 
SCCF RECON,ioos:station:SCCF:56:1,2017-04-05T08:00:00Z,26.4645,-82.1044,1.16,3.41,1111122 
SCCF RECON,ioos:station:SCCF:56:1,2017-04-05T09:00:00Z,26.4645,-82.1044,1.186,3.32,1111122 
SCCF RECON,ioos:station:SCCF:56:1,2017-04-05T10:00:00Z,26.4645,-82.1044,1.3,3.17,1111122 
SCCF RECON,ioos:station:SCCF:56:1,2017-04-05T11:00:00Z,26.4645,-82.1044,1.418,2.44,1111122 
SCCF RECON,ioos:station:SCCF:56:1,2017-04-05T12:00:00Z,26.4645,-82.1044,1.528,2.16,1111122 
SCCF RECON,ioos:station:SCCF:56:1,2017-04-05T13:00:00Z,26.4645,-82.1044,1.61,3.59,1111122 
SCCF RECON,ioos:station:SCCF:56:1,2017-04-05T14:00:00Z,26.4645,-82.1044,1.684,4.93,1111122 
SCCF RECON,ioos:station:SCCF:56:1,2017-04-05T15:00:00Z,26.4645,-82.1044,1.72,6.53,1111122 
SCCF RECON,ioos:station:SCCF:56:1,2017-04-05T16:00:00Z,26.4645,-82.1044,1.73,6.44,1111122 
SCCF RECON,ioos:station:SCCF:56:1,2017-04-05T17:00:00Z,26.4645,-82.1044,1.722,6.63,1111122 
SCCF RECON,ioos:station:SCCF:56:1,2017-04-05T18:00:00Z,26.4645,-82.1044,1.655,6.71,1111122 
SCCF RECON,ioos:station:SCCF:56:1,2017-04-05T19:00:00Z,26.4645,-82.1044,1.56,6.61,1111122 
SCCF RECON,ioos:station:SCCF:56:1,2017-04-05T20:00:00Z,26.4645,-82.1044,1.51,6.63,1111122 
SCCF RECON,ioos:station:SCCF:56:1,2017-04-05T21:00:00Z,26.4645,-82.1044,1.52,6.69,1111122 
SCCF RECON,ioos:station:SCCF:56:1,2017-04-05T22:00:00Z,26.4645,-82.1044,1.62,8.43,1111122 
SCCF RECON,ioos:station:SCCF:56:1,2017-04-05T23:00:00Z,26.4645,-82.1044,1.72,8.01,1111122 
SCCF RECON,ioos:station:SCCF:56:1,2017-04-06T00:00:00Z,26.4645,-82.1044,1.79,7.0,1111122 
SCCF RECON,ioos:station:SCCF:56:1,2017-04-06T01:00:00Z,26.4645,-82.1044,1.819,6.38,1111122 
SCCF RECON,ioos:station:SCCF:56:1,2017-04-06T02:00:00Z,26.4645,-82.1044,1.8,6.76,1111122 
SCCF RECON,ioos:station:SCCF:56:1,2017-04-06T03:00:00Z,26.4645,-82.1044,1.779,6.43,1111122 
SCCF RECON,ioos:station:SCCF:56:1,2017-04-06T04:00:00Z,26.4645,-82.1044,1.7,6.16,1111122 
SCCF RECON,ioos:station:SCCF:56:1,2017-04-06T05:00:00Z,26.4645,-82.1044,1.58,5.76,1111122 
SCCF RECON,ioos:station:SCCF:56:1,2017-04-06T06:00:00Z,26.4645,-82.1044,1.45,5.0,1111122 
SCCF RECON,ioos:station:SCCF:56:1,2017-04-06T07:00:00Z,26.4645,-82.1044,1.33,4.13,1111122 
SCCF RECON,ioos:station:SCCF:56:1,2017-04-06T08:00:00Z,26.4645,-82.1044,1.233,3.63,1111122 
SCCF RECON,ioos:station:SCCF:56:1,2017-04-06T09:00:00Z,26.4645,-82.1044,1.16,3.25,1111122 
SCCF RECON,ioos:station:SCCF:56:1,2017-04-06T10:00:00Z,26.4645,-82.1044,1.2,3.05,1111122 
SCCF RECON,ioos:station:SCCF:56:1,2017-04-06T11:00:00Z,26.4645,-82.1044,1.32,2.62,1111122 
SCCF RECON,ioos:station:SCCF:56:1,2017-04-06T12:00:00Z,26.4645,-82.1044,1.4,3.54,1111122 
SCCF RECON,ioos:station:SCCF:56:1,2017-04-06T13:00:00Z,26.4645,-82.1044,1.46,4.51,1111122 
SCCF RECON,ioos:station:SCCF:56:1,2017-04-06T14:00:00Z,26.4645,-82.1044,1.63,4.9,1111122 
SCCF RECON,ioos:station:SCCF:56:1,2017-04-06T15:00:00Z,26.4645,-82.1044,1.76,4.78,1111122 
SCCF RECON,ioos:station:SCCF:56:1,2017-04-06T16:00:00Z,26.4645,-82.1044,1.86,5.16,1111122 
SCCF RECON,ioos:station:SCCF:56:1,2017-04-06T17:00:00Z,26.4645,-82.1044,1.746,5.56,1111122 
SCCF RECON,ioos:station:SCCF:56:1,2017-04-06T18:00:00Z,26.4645,-82.1044,1.595,5.37,1111122 
SCCF RECON,ioos:station:SCCF:56:1,2017-04-06T19:00:00Z,26.4645,-82.1044,1.495,5.25,1111122 
SCCF RECON,ioos:station:SCCF:56:1,2017-04-06T20:00:00Z,26.4645,-82.1044,1.43,5.37,1111122 
SCCF RECON,ioos:station:SCCF:56:1,2017-04-06T21:00:00Z,26.4645,-82.1044,1.37,5.56,1111122 
SCCF RECON,ioos:station:SCCF:56:1,2017-04-06T22:00:00Z,26.4645,-82.1044,1.37,6.08,1111122 
SCCF RECON,ioos:station:SCCF:56:1,2017-04-06T23:00:00Z,26.4645,-82.1044,1.403,6.0,1111122 
SCCF RECON,ioos:station:SCCF:56:1,2017-04-07T00:00:00Z,26.4645,-82.1044,1.45,6.25,1111122 
SCCF RECON,ioos:station:SCCF:56:1,2017-04-07T01:00:00Z,26.4645,-82.1044,1.54,6.19,1111122 
SCCF RECON,ioos:station:SCCF:56:1,2017-04-07T02:00:00Z,26.4645,-82.1044,1.6,5.91,1111122 
SCCF RECON,ioos:station:SCCF:56:1,2017-04-07T03:00:00Z,26.4645,-82.1044,1.64,5.6,1111122 
SCCF RECON,ioos:station:SCCF:56:1,2017-04-07T04:00:00Z,26.4645,-82.1044,1.65,4.83,1111122 
SCCF RECON,ioos:station:SCCF:56:1,2017-04-07T05:00:00Z,26.4645,-82.1044,1.61,5.24,1111122 
SCCF RECON,ioos:station:SCCF:56:1,2017-04-07T06:00:00Z,26.4645,-82.1044,1.54,5.14,1111122 
SCCF RECON,ioos:station:SCCF:56:1,2017-04-07T07:00:00Z,26.4645,-82.1044,1.44,4.74,1111122 
SCCF RECON,ioos:station:SCCF:56:1,2017-04-07T08:00:00Z,26.4645,-82.1044,1.33,4.78,1111122 
SCCF RECON,ioos:station:SCCF:56:1,2017-04-07T09:00:00Z,26.4645,-82.1044,1.201,4.36,1111122 
SCCF RECON,ioos:station:SCCF:56:1,2017-04-07T10:00:00Z,26.4645,-82.1044,1.121,4.02,1111122 
SCCF RECON,ioos:station:SCCF:56:1,2017-04-07T11:00:00Z,26.4645,-82.1044,1.13,3.17,1111122 
SCCF RECON,ioos:station:SCCF:56:1,2017-04-07T12:00:00Z,26.4645,-82.1044,1.22,3.87,1111122 
SCCF RECON,ioos:station:SCCF:56:1,2017-04-07T13:00:00Z,26.4645,-82.1044,1.325,5.74,1111122 
SCCF RECON,ioos:station:SCCF:56:1,2017-04-07T14:00:00Z,26.4645,-82.1044,1.422,6.18,1111122 
SCCF RECON,ioos:station:SCCF:56:1,2017-04-07T15:00:00Z,26.4645,-82.1044,1.539,6.72,1111122 
SCCF RECON,ioos:station:SCCF:56:1,2017-04-07T16:00:00Z,26.4645,-82.1044,1.59,7.24,1111122 
SCCF RECON,ioos:station:SCCF:56:1,2017-04-07T17:00:00Z,26.4645,-82.1044,1.561,7.27,1111122 
SCCF RECON,ioos:station:SCCF:56:1,2017-04-07T18:00:00Z,26.4645,-82.1044,1.49,7.08,1111122 
SCCF RECON,ioos:station:SCCF:56:1,2017-04-07T19:00:00Z,26.4645,-82.1044,1.401,7.23,1111122 
SCCF RECON,ioos:station:SCCF:56:1,2017-04-07T20:00:00Z,26.4645,-82.1044,1.324,7.2,1111122 
SCCF RECON,ioos:station:SCCF:56:1,2017-04-07T21:00:00Z,26.4645,-82.1044,1.27,7.37,1111122 
SCCF RECON,ioos:station:SCCF:56:1,2017-04-07T22:00:00Z,26.4645,-82.1044,1.22,7.37,1111122 
SCCF RECON,ioos:station:SCCF:56:1,2017-04-07T23:00:00Z,26.4645,-82.1044,1.213,7.38,1111122 
SCCF RECON,ioos:station:SCCF:56:1,2017-04-08T00:00:00Z,26.4645,-82.1044,1.28,8.6,1111122 
SCCF RECON,ioos:station:SCCF:56:1,2017-04-08T01:00:00Z,26.4645,-82.1044,1.41,7.89,1111122 
SCCF RECON,ioos:station:SCCF:56:1,2017-04-08T02:00:00Z,26.4645,-82.1044,1.539,7.28,1111122 
SCCF RECON,ioos:station:SCCF:56:1,2017-04-08T03:00:00Z,26.4645,-82.1044,1.63,7.07,1111122 
SCCF RECON,ioos:station:SCCF:56:1,2017-04-08T04:00:00Z,26.4645,-82.1044,1.69,6.93,1111122 
SCCF RECON,ioos:station:SCCF:56:1,2017-04-08T05:00:00Z,26.4645,-82.1044,1.67,6.6,1111122 
SCCF RECON,ioos:station:SCCF:56:1,2017-04-08T06:00:00Z,26.4645,-82.1044,1.572,6.56,1111122 
SCCF RECON,ioos:station:SCCF:56:1,2017-04-08T07:00:00Z,26.4645,-82.1044,1.451,6.25,1111122 
SCCF RECON,ioos:station:SCCF:56:1,2017-04-08T08:00:00Z,26.4645,-82.1044,1.34,5.73,1111122 
SCCF RECON,ioos:station:SCCF:56:1,2017-04-08T09:00:00Z,26.4645,-82.1044,1.23,5.4,1111122 
SCCF RECON,ioos:station:SCCF:56:1,2017-04-08T10:00:00Z,26.4645,-82.1044,1.14,4.96,1111122 
SCCF RECON,ioos:station:SCCF:56:1,2017-04-08T11:00:00Z,26.4645,-82.1044,1.11,4.66,1111122 
SCCF RECON,ioos:station:SCCF:56:1,2017-04-08T12:00:00Z,26.4645,-82.1044,1.16,4.63,1111122 
SCCF RECON,ioos:station:SCCF:56:1,2017-04-08T13:00:00Z,26.4645,-82.1044,1.305,6.47,1111122 
SCCF RECON,ioos:station:SCCF:56:1,2017-04-08T14:00:00Z,26.4645,-82.1044,1.461,7.15,1111122 
SCCF RECON,ioos:station:SCCF:56:1,2017-04-08T15:00:00Z,26.4645,-82.1044,1.59,7.63,1111122 
SCCF RECON,ioos:station:SCCF:56:1,2017-04-08T16:00:00Z,26.4645,-82.1044,1.69,7.7,1111122 
SCCF RECON,ioos:station:SCCF:56:1,2017-04-08T17:00:00Z,26.4645,-82.1044,1.7,7.52,1111122 
SCCF RECON,ioos:station:SCCF:56:1,2017-04-08T18:00:00Z,26.4645,-82.1044,1.62,7.85,1111122 
SCCF RECON,ioos:station:SCCF:56:1,2017-04-08T19:00:00Z,26.4645,-82.1044,1.486,7.98,1111122 
SCCF RECON,ioos:station:SCCF:56:1,2017-04-08T20:00:00Z,26.4645,-82.1044,1.38,7.8,1111122 
SCCF RECON,ioos:station:SCCF:56:1,2017-04-08T21:00:00Z,26.4645,-82.1044,1.32,7.75,1111122 
SCCF RECON,ioos:station:SCCF:56:1,2017-04-08T22:00:00Z,26.4645,-82.1044,1.25,7.9,1111122 
SCCF RECON,ioos:station:SCCF:56:1,2017-04-08T23:00:00Z,26.4645,-82.1044,1.21,8.27,1111122 
SCCF RECON,ioos:station:SCCF:56:1,2017-04-09T00:00:00Z,26.4645,-82.1044,1.23,8.21,1111122 
SCCF RECON,ioos:station:SCCF:56:1,2017-04-09T01:00:00Z,26.4645,-82.1044,1.349,7.81,1111122 
SCCF RECON,ioos:station:SCCF:56:1,2017-04-09T02:00:00Z,26.4645,-82.1044,1.49,7.55,1111122 
SCCF RECON,ioos:station:SCCF:56:1,2017-04-09T03:00:00Z,26.4645,-82.1044,1.61,7.22,1111122 
SCCF RECON,ioos:station:SCCF:56:1,2017-04-09T04:00:00Z,26.4645,-82.1044,1.71,7.14,1111122 
SCCF RECON,ioos:station:SCCF:56:1,2017-04-09T05:00:00Z,26.4645,-82.1044,1.721,7.41,1111122 
SCCF RECON,ioos:station:SCCF:56:1,2017-04-09T06:00:00Z,26.4645,-82.1044,1.63,7.18,1111122 
SCCF RECON,ioos:station:SCCF:56:1,2017-04-09T07:00:00Z,26.4645,-82.1044,1.5,7.1,1111122 
SCCF RECON,ioos:station:SCCF:56:1,2017-04-09T08:00:00Z,26.4645,-82.1044,1.38,6.49,1111122 
SCCF RECON,ioos:station:SCCF:56:1,2017-04-09T09:00:00Z,26.4645,-82.1044,1.28,5.98,1111122 
SCCF RECON,ioos:station:SCCF:56:1,2017-04-09T10:00:00Z,26.4645,-82.1044,1.183,5.56,1111122 
SCCF RECON,ioos:station:SCCF:56:1,2017-04-09T11:00:00Z,26.4645,-82.1044,1.117,5.21,1111122 
SCCF RECON,ioos:station:SCCF:56:1,2017-04-09T12:00:00Z,26.4645,-82.1044,1.111,4.87,1111122 
SCCF RECON,ioos:station:SCCF:56:1,2017-04-09T13:00:00Z,26.4645,-82.1044,1.242,6.77,1111122 
SCCF RECON,ioos:station:SCCF:56:1,2017-04-09T14:00:00Z,26.4645,-82.1044,1.417,7.51,1111122 
SCCF RECON,ioos:station:SCCF:56:1,2017-04-09T15:00:00Z,26.4645,-82.1044,1.529,8.06,1111122 
SCCF RECON,ioos:station:SCCF:56:1,2017-04-09T16:00:00Z,26.4645,-82.1044,1.61,8.4,1111122 
SCCF RECON,ioos:station:SCCF:56:1,2017-04-09T17:00:00Z,26.4645,-82.1044,1.7,8.57,1111122 
SCCF RECON,ioos:station:SCCF:56:1,2017-04-09T18:00:00Z,26.4645,-82.1044,1.71,8.33,1111122 
SCCF RECON,ioos:station:SCCF:56:1,2017-04-09T19:00:00Z,26.4645,-82.1044,1.64,8.18,1111122 
SCCF RECON,ioos:station:SCCF:56:1,2017-04-09T20:00:00Z,26.4645,-82.1044,1.528,8.48,1111122 
SCCF RECON,ioos:station:SCCF:56:1,2017-04-09T21:00:00Z,26.4645,-82.1044,1.428,8.16,1111122 
SCCF RECON,ioos:station:SCCF:56:1,2017-04-09T22:00:00Z,26.4645,-82.1044,1.32,8.02,1111122 
SCCF RECON,ioos:station:SCCF:56:1,2017-04-09T23:00:00Z,26.4645,-82.1044,1.259,7.85,1111122 
SCCF RECON,ioos:station:SCCF:56:1,2017-04-10T00:00:00Z,26.4645,-82.1044,1.238,8.11,1111122 
SCCF RECON,ioos:station:SCCF:56:1,2017-04-10T01:00:00Z,26.4645,-82.1044,1.321,7.77,1111122 
SCCF RECON,ioos:station:SCCF:56:1,2017-04-10T02:00:00Z,26.4645,-82.1044,1.494,8.1,1111122 
SCCF RECON,ioos:station:SCCF:56:1,2017-04-10T03:00:00Z,26.4645,-82.1044,1.618,7.99,1111122 
SCCF RECON,ioos:station:SCCF:56:1,2017-04-10T04:00:00Z,26.4645,-82.1044,1.698,7.3,1111122 
SCCF RECON,ioos:station:SCCF:56:1,2017-04-10T05:00:00Z,26.4645,-82.1044,1.77,7.0,1111122 
SCCF RECON,ioos:station:SCCF:56:1,2017-04-10T06:00:00Z,26.4645,-82.1044,1.769,6.8,1111122 
SCCF RECON,ioos:station:SCCF:56:1,2017-04-10T07:00:00Z,26.4645,-82.1044,1.696,7.06,1111122 
SCCF RECON,ioos:station:SCCF:56:1,2017-04-10T08:00:00Z,26.4645,-82.1044,1.562,6.8,1111122 
SCCF RECON,ioos:station:SCCF:56:1,2017-04-10T09:00:00Z,26.4645,-82.1044,1.449,6.31,1111122 
SCCF RECON,ioos:station:SCCF:56:1,2017-04-10T10:00:00Z,26.4645,-82.1044,1.36,5.81,1111122 
SCCF RECON,ioos:station:SCCF:56:1,2017-04-10T11:00:00Z,26.4645,-82.1044,1.28,5.15,1111122 
SCCF RECON,ioos:station:SCCF:56:1,2017-04-10T12:00:00Z,26.4645,-82.1044,1.25,4.61,1111122 
SCCF RECON,ioos:station:SCCF:56:1,2017-04-10T13:00:00Z,26.4645,-82.1044,1.37,5.55,1111122 
SCCF RECON,ioos:station:SCCF:56:1,2017-04-10T14:00:00Z,26.4645,-82.1044,1.569,6.59,1111122 
SCCF RECON,ioos:station:SCCF:56:1,2017-04-10T15:00:00Z,26.4645,-82.1044,1.72,7.72,1111122 
SCCF RECON,ioos:station:SCCF:56:1,2017-04-10T16:00:00Z,26.4645,-82.1044,1.819,8.08,1111122 
SCCF RECON,ioos:station:SCCF:56:1,2017-04-10T17:00:00Z,26.4645,-82.1044,1.85,7.81,1111122 
SCCF RECON,ioos:station:SCCF:56:1,2017-04-10T18:00:00Z,26.4645,-82.1044,1.827,7.66,1111122 
SCCF RECON,ioos:station:SCCF:56:1,2017-04-10T19:00:00Z,26.4645,-82.1044,1.734,7.96,1111122 
SCCF RECON,ioos:station:SCCF:56:1,2017-04-10T20:00:00Z,26.4645,-82.1044,1.587,8.01,1111122 
SCCF RECON,ioos:station:SCCF:56:1,2017-04-10T21:00:00Z,26.4645,-82.1044,1.469,7.61,1111122 
SCCF RECON,ioos:station:SCCF:56:1,2017-04-10T22:00:00Z,26.4645,-82.1044,1.366,7.79,1111122 
SCCF RECON,ioos:station:SCCF:56:1,2017-04-10T23:00:00Z,26.4645,-82.1044,1.289,8.04,1111122 
SCCF RECON,ioos:station:SCCF:56:1,2017-04-11T00:00:00Z,26.4645,-82.1044,1.22,7.89,1111122 
SCCF RECON,ioos:station:SCCF:56:1,2017-04-11T01:00:00Z,26.4645,-82.1044,1.219,7.04,1111122 
SCCF RECON,ioos:station:SCCF:56:1,2017-04-11T02:00:00Z,26.4645,-82.1044,1.34,8.73,1111122 
SCCF RECON,ioos:station:SCCF:56:1,2017-04-11T03:00:00Z,26.4645,-82.1044,1.485,7.16,1111122 
SCCF RECON,ioos:station:SCCF:56:1,2017-04-11T04:00:00Z,26.4645,-82.1044,1.616,6.65,1111122 
SCCF RECON,ioos:station:SCCF:56:1,2017-04-11T05:00:00Z,26.4645,-82.1044,1.681,6.24,1111122 
SCCF RECON,ioos:station:SCCF:56:1,2017-04-11T06:00:00Z,26.4645,-82.1044,1.722,5.99,1111122 
SCCF RECON,ioos:station:SCCF:56:1,2017-04-11T07:00:00Z,26.4645,-82.1044,1.69,6.26,1111122 
SCCF RECON,ioos:station:SCCF:56:1,2017-04-11T08:00:00Z,26.4645,-82.1044,1.6,6.36,1111122 
SCCF RECON,ioos:station:SCCF:56:1,2017-04-11T09:00:00Z,26.4645,-82.1044,1.476,5.9,1111122 
SCCF RECON,ioos:station:SCCF:56:1,2017-04-11T10:00:00Z,26.4645,-82.1044,1.389,5.34,1111122 
SCCF RECON,ioos:station:SCCF:56:1,2017-04-11T11:00:00Z,26.4645,-82.1044,1.33,4.61,1111122 
SCCF RECON,ioos:station:SCCF:56:1,2017-04-11T12:00:00Z,26.4645,-82.1044,1.32,4.2,1111122 
SCCF RECON,ioos:station:SCCF:56:1,2017-04-11T13:00:00Z,26.4645,-82.1044,1.378,4.37,1111122 
SCCF RECON,ioos:station:SCCF:56:1,2017-04-11T14:00:00Z,26.4645,-82.1044,1.516,6.04,1111122 
SCCF RECON,ioos:station:SCCF:56:1,2017-04-11T15:00:00Z,26.4645,-82.1044,1.677,6.93,1111122 
SCCF RECON,ioos:station:SCCF:56:1,2017-04-11T16:00:00Z,26.4645,-82.1044,1.773,7.57,1111122 
SCCF RECON,ioos:station:SCCF:56:1,2017-04-11T17:00:00Z,26.4645,-82.1044,1.858,8.17,1111122 
SCCF RECON,ioos:station:SCCF:56:1,2017-04-11T18:00:00Z,26.4645,-82.1044,1.907,8.34,1111122 
SCCF RECON,ioos:station:SCCF:56:1,2017-04-11T19:00:00Z,26.4645,-82.1044,1.86,7.95,1111122 
SCCF RECON,ioos:station:SCCF:56:1,2017-04-11T20:00:00Z,26.4645,-82.1044,1.739,8.25,1111122 
SCCF RECON,ioos:station:SCCF:56:1,2017-04-11T21:00:00Z,26.4645,-82.1044,1.594,7.81,1111122 